Location: Unspecified
(0.0000°N, 0.0000°E)
Time: 07:36:49
(UTC+00:00)

XW-2C - Pass Details

Date: 21 May 2021
Orbit: 506 x 525 km, 97.5° (Epoch: 17 June)

Event Time Altitude Azimuth Distance (km) Brightness Sun altitude
Rises 04:41:08 0° 46° (NE) 2,628 ? -17.7°
Reaches altitude 10° 04:44:26 10° 79° (ENE) 1,740 ? -16.9°
Maximum altitude 04:45:53 12° 101° (ESE) 1,620 ? -16.6°
Drops below altitude 10° 04:47:20 10° 124° (SE) 1,739 ? -16.2°
Sets 04:50:37 0° 156° (SSE) 2,624 ? -15.5°
